Location: Unspecified
(38.9119°N, 0.0000°E)
Time: 13:56:58
(UTC+00:00)

Hubble Space Telescope - Visible Passes

Search period start: 23 October 2019 00:00
Search period end: 02 November 2019 00:00
Orbit: 536 x 540 km, 28.5° (Epoch: 22 October)

Date Brightness Start Highest point End Pass type
(mag) Time Alt. Az. Time Alt. Az. Time Alt. Az.
30 Oct 3.3 04:32:22 10° S 04:33:46 12° SSE 04:35:17 10° SE visible
31 Oct 3.2 04:22:36 13° S 04:23:04 13° SSE 04:25:07 10° SE visible
01 Nov 3.2 04:12:47 15° SSE 04:12:47 15° SSE 04:14:46 10° SE visible
01 Nov 2.9 05:49:57 10° SW 05:52:54 19° S 05:55:51 10° SE visible
